Theta_e
316 316 315 314 313 311 309 308 307 307 307 310 311 312 312 312 312 314 313 313 314 313 314 315 315 314 314 313 313 313 312 312 304 302 303 304 305 306 307 307 306 307 308
315 315 314 313 312 310 309 308 307 306 308 310 311 312 312 312 312 313 313 313 313 313 314 315 315 314 313 312 312 312 311 309 306 303 302 302 303 304 305 306 306 306 306
314 314 313 312 311 309 308 307 307 307 308 310 310 311 311 311 311 312 312 312 313 313 314 314 314 313 311 311 311 310 309 308 306 303 302 301 301 302 304 305 305 305 306
313 313 312 311 310 309 308 307 306 306 307 309 310 311 311 311 311 311 312 312 313 313 313 313 313 313 312 311 311 309 308 307 306 305 302 300 301 302 302 303 303 303 303
312 312 311 310 310 309 308 307 306 306 307 309 310 310 310 310 310 310 312 312 312 312 312 312 312 312 312 311 311 309 308 307 306 304 301 301 301 301 301 301 302 302 302
311 311 311 310 309 308 307 306 305 305 307 308 309 310 310 310 310 310 311 312 311 312 312 311 312 311 311 311 310 310 309 307 306 304 303 302 302 303 302 302 301 301 303
310 310 310 310 308 308 307 306 305 305 306 308 309 309 310 310 310 310 311 311 311 311 311 310 310 310 310 310 309 309 308 307 307 307 306 305 305 305 304 303 302 302 303
309 310 309 308 307 307 306 305 305 305 306 307 308 309 310 310 309 308 308 309 310 310 310 311 311 310 310 310 310 309 308 307 307 307 306 306 306 306 305 304 304 302 301
308 308 308 308 307 306 306 305 305 305 305 307 308 309 309 309 309 308 307 308 308 310 310 310 311 311 311 310 310 309 308 308 307 307 307 307 307 307 306 305 303 301 299
307 307 307 308 307 306 306 305 305 305 305 306 307 308 309 309 309 307 307 307 308 309 310 310 310 311 310 310 310 310 308 308 308 308 307 308 308 308 307 305 304 302 300
307 307 307 307 307 306 306 305 304 304 305 305 306 307 308 309 309 307 307 308 308 308 309 310 310 310 310 310 310 310 310 310 308 307 307 308 307 307 306 305 305 305 302
306 306 306 306 306 306 305 304 304 303 303 304 304 305 306 308 308 307 306 307 308 308 308 308 309 310 309 309 309 309 309 308 308 307 307 307 306 307 306 305 304 303 302
304 304 304 305 305 305 304 303 303 302 302 302 302 302 304 306 308 307 306 306 307 308 308 308 308 308 308 308 308 309 309 308 308 307 307 308 308 307 304 303 302 302 301
303 303 303 302 302 303 303 303 302 301 301 301 301 301 300 304 306 308 306 305 306 307 307 308 308 308 308 309 308 307 307 307 307 308 308 307 306 306 304 303 302 302 301
301 300 300 301 301 301 301 302 302 302 302 302 301 301 299 299 303 306 307 306 305 306 306 307 307 307 307 307 307 307 307 306 306 306 306 306 306 305 304 303 302 300 298
298 298 298 298 298 299 299 300 300 301 302 302 303 303 303 303 304 304 306 306 305 305 305 305 306 306 306 307 306 306 306 305 305 305 305 305 305 305 304 302 302 299 297
298 298 298 297 297 298 298 298 297 299 300 301 301 302 302 303 303 304 304 305 306 305 305 304 304 305 306 307 307 307 307 306 307 306 306 305 304 303 302 300 299 297 296
297 297 297 297 296 297 298 298 298 297 296 299 300 300 300 301 301 302 303 302 301 303 304 303 303 304 304 305 306 307 307 306 306 306 306 305 304 302 300 299 297 297 295
296 296 296 297 296 296 296 296 298 297 296 297 297 298 299 299 300 300 300 298 298 300 302 303 303 302 303 303 304 305 305 305 306 306 305 304 304 302 300 299 298 297 296
294 295 295 295 295 294 295 295 295 296 297 296 296 296 296 295 295 295 295 296 297 297 299 300 302 301 301 301 302 302 303 303 303 303 304 304 303 302 301 299 296 295 294
293 293 294 294 294 293 294 295 295 295 295 296 296 296 296 295 294 294 294 295 296 297 298 298 301 301 299 299 299 299 300 301 302 302 303 302 301 299 298 298 296 295 294
292 292 292 292 292 293 293 293 294 295 295 295 295 296 296 294 294 294 294 294 295 297 298 298 300 299 299 298 298 299 299 300 301 301 301 301 299 298 297 296 295 294 293
290 291 291 291 292 292 292 293 293 294 294 295 295 295 295 294 294 294 294 294 295 296 297 298 298 299 298 298 298 299 299 301 302 302 301 299 298 296 296 294 293 292 291
289 290 291 291 291 292 292 292 293 293 293 294 294 294 294 294 294 294 294 294 295 296 296 298 299 298 297 298 299 300 300 301 302 301 300 298 297 295 293 293 292 291 290
289 289 289 290 290 291 292 292 292 293 293 293 293 293 293 294 293 294 294 294 293 294 295 298 298 297 298 298 299 299 299 299 299 298 297 297 295 293 292 291 290 289 287
289 290 290 290 290 291 291 292 292 292 292 292 293 293 293 293 293 293 293 293 293 293 295 297 298 298 298 298 298 297 296 297 296 295 295 294 292 291 290 289 288 287 286
Wind_Speed
33 33 33 32 30 29 29 27 27 25 26 24 21 18 16 14 12 10 11 13 11 14 16 19 20 20 16 14 11 11 14 6 13 9 14 11 14 13 15 16 13 12 13
32 31 31 31 30 29 29 28 27 26 25 24 21 19 17 16 13 12 13 13 12 16 17 19 20 19 17 16 14 13 9 8 18 18 14 9 12 11 11 10 11 13 12
30 31 30 31 30 29 29 28 29 28 27 24 22 20 19 16 15 13 13 14 13 15 18 19 21 20 18 17 12 12 12 16 18 17 11 11 9 10 10 10 10 10 9
29 30 30 30 30 30 30 29 28 28 28 25 22 21 19 18 16 15 13 14 14 15 17 17 19 19 21 17 14 14 16 17 16 17 14 12 12 12 10 10 9 9 8
27 28 29 29 29 30 32 30 29 27 26 25 23 20 19 19 17 17 15 15 15 17 17 17 17 17 21 16 17 17 17 17 17 16 12 8 11 11 13 11 10 9 8
24 24 26 28 29 30 32 30 29 28 26 25 24 22 21 19 20 18 18 17 17 18 18 18 20 19 18 15 12 11 13 19 19 15 14 14 16 15 15 13 11 7 3
22 23 26 28 28 31 32 32 31 29 27 26 23 23 22 21 21 20 19 18 19 18 18 20 22 22 19 18 15 13 12 12 11 16 17 15 13 18 16 16 15 12 9
21 24 26 28 28 29 31 29 28 28 28 26 24 23 23 21 24 22 20 19 20 20 20 22 24 24 22 20 18 15 13 12 11 11 12 10 10 5 14 13 12 13 13
19 21 25 28 29 30 29 28 28 27 26 25 25 25 23 23 26 23 22 21 21 20 20 22 23 24 24 22 20 18 15 14 14 14 12 9 8 9 11 12 13 12 6
19 21 22 23 27 29 30 29 28 27 26 25 26 25 25 26 29 25 24 24 23 21 21 21 22 22 23 22 20 19 18 17 17 16 13 10 9 10 11 11 10 10 9
19 22 23 25 27 27 28 29 31 27 28 27 28 26 26 25 31 28 26 25 27 26 24 23 23 23 23 23 22 21 20 17 18 16 14 12 13 12 10 10 9 10 11
21 22 23 24 25 25 27 28 29 30 31 30 30 27 26 26 31 31 28 26 26 27 27 26 24 23 22 22 22 21 19 17 17 18 17 18 16 13 10 10 9 9 9
17 19 21 23 24 25 28 30 29 27 25 25 28 27 29 29 29 32 30 27 25 26 25 24 23 22 22 21 22 22 19 18 17 19 19 18 15 11 10 10 11 11 11
16 17 18 20 23 24 24 29 28 27 24 24 24 23 26 32 31 35 34 29 27 25 23 24 24 23 22 21 21 21 21 19 19 17 16 14 12 12 13 11 11 11 12
11 15 18 21 22 24 23 27 24 26 32 32 30 31 29 29 39 37 39 36 33 29 26 24 25 25 25 24 23 23 22 22 21 19 16 13 12 12 12 12 12 10 9
7 11 15 16 21 22 22 20 22 24 25 27 33 37 36 35 37 37 37 38 34 30 29 29 29 28 27 28 26 25 24 23 21 20 18 16 15 14 12 12 12 12 10
6 8 11 13 14 17 20 21 17 19 20 23 25 31 35 33 33 35 36 35 34 33 34 33 32 31 30 29 29 29 28 25 23 21 20 19 17 15 13 13 12 11 10
7 9 11 14 14 15 17 19 19 20 19 25 26 25 28 29 29 29 33 32 31 35 35 34 35 34 32 32 30 29 26 23 24 22 21 19 18 17 16 15 14 14 13
9 10 11 11 12 15 15 17 20 20 20 20 26 26 26 26 26 25 29 37 33 36 38 39 38 35 33 32 31 30 27 26 24 23 22 20 19 18 18 17 18 16 15
10 10 10 10 11 14 15 17 17 18 20 21 23 29 30 27 26 29 32 34 31 31 38 38 39 35 33 32 31 29 28 27 25 22 21 20 20 21 22 21 21 20 18
13 11 12 12 13 14 16 19 18 18 19 21 24 28 34 35 31 32 35 37 37 36 38 37 39 35 31 29 29 32 31 30 27 26 24 23 22 23 22 20 20 19 16
15 14 14 15 15 16 17 17 19 20 20 21 22 26 28 30 28 31 33 36 39 40 39 38 38 35 32 30 30 29 30 30 29 28 25 24 22 23 22 21 19 17 16
16 14 14 14 16 15 16 18 19 20 20 23 23 24 28 31 29 29 32 34 38 41 41 35 34 31 30 29 28 29 30 30 30 28 27 25 25 24 23 22 20 17 16
15 15 16 15 15 17 18 17 20 21 22 24 25 26 27 30 30 31 31 32 37 38 39 36 32 30 30 30 28 28 29 29 27 27 27 27 27 24 22 20 18 18 17
17 16 14 15 16 19 18 19 20 22 23 24 25 26 27 29 30 32 32 34 34 37 37 36 33 29 30 30 29 28 28 29 27 28 26 26 25 23 21 20 19 17 16
19 19 18 17 17 16 19 18 20 21 22 23 25 27 28 29 30 31 33 34 36 36 37 37 34 31 31 30 29 29 28 28 28 27 26 25 24 23 23 22 21 19 18
Wind_Direction
179 178 174 174 171 170 173 171 172 171 172 172 168 168 169 171 172 168 165 160 147 145 146 150 146 147 143 141 134 125 132 142 130 121 127 111 105 116 124 124 117 115 115
178 174 171 169 168 168 169 170 171 169 170 171 169 170 170 171 172 173 170 162 157 148 152 153 154 150 147 150 141 134 129 157 142 132 138 134 135 130 136 134 132 136 135
172 170 167 168 167 166 169 166 168 168 169 170 171 172 173 170 170 175 174 165 161 156 158 160 156 154 156 150 143 140 127 132 142 147 139 151 144 143 145 149 147 149 155
169 167 167 167 166 163 165 168 166 172 168 171 172 173 174 171 171 171 172 165 159 159 159 162 161 162 164 159 148 140 137 137 147 142 150 158 162 170 172 178 175 179 186
167 166 167 164 161 162 169 171 168 170 170 171 169 174 174 172 174 172 171 166 161 157 157 160 160 171 170 162 157 152 152 150 148 150 156 167 185 185 191 195 199 209 221
165 165 162 159 159 161 166 168 169 168 168 170 173 174 174 176 180 176 169 169 164 163 161 161 166 175 169 164 155 153 166 166 164 161 174 187 200 202 205 206 205 212 244
162 160 159 159 159 164 169 170 172 170 169 172 174 176 178 185 182 179 173 175 169 167 169 169 172 175 172 166 158 163 167 168 189 190 187 196 211 216 214 213 217 224 226
162 159 159 161 161 163 167 168 168 170 172 172 174 177 178 188 181 180 182 184 183 178 180 184 181 178 181 178 174 173 178 181 181 183 193 203 215 228 221 233 239 244 249
159 162 164 164 162 165 167 168 170 169 172 174 177 177 178 186 182 179 184 187 190 188 186 189 188 187 187 187 185 183 186 191 192 196 203 206 206 207 212 223 220 217 241
165 164 164 166 166 169 170 169 170 173 174 176 179 182 182 188 184 183 188 189 190 191 193 194 191 191 189 193 197 197 192 198 199 200 202 203 209 210 221 222 220 213 222
167 169 167 169 172 172 171 172 174 171 175 181 184 185 186 193 186 186 190 195 193 194 194 195 196 198 200 203 208 211 211 209 209 210 210 213 216 216 217 219 218 229 225
173 172 171 170 171 170 170 177 176 177 178 183 186 187 191 195 193 188 193 201 198 197 199 202 203 202 203 209 212 215 218 220 211 210 212 218 218 220 211 219 229 236 239
169 175 179 179 178 176 176 179 176 179 175 176 180 185 192 196 196 196 195 200 203 205 206 205 206 207 209 213 216 219 217 214 211 209 215 221 225 227 225 221 222 234 244
171 176 182 183 181 184 186 188 181 180 179 181 182 185 192 196 199 198 198 199 205 206 207 207 208 211 213 215 210 211 210 209 212 215 220 233 237 228 226 230 238 241 250
178 179 184 190 192 191 195 198 194 197 195 190 192 193 189 198 205 202 200 200 203 203 204 206 205 207 208 209 207 203 204 209 216 223 231 235 230 225 224 226 234 236 230
182 184 187 183 190 193 192 193 205 213 207 209 213 211 211 214 210 207 208 207 205 203 205 208 207 207 207 208 208 211 218 222 224 226 228 231 229 226 225 221 227 227 227
182 196 202 189 188 190 189 189 187 201 207 213 218 221 224 222 219 215 211 210 208 208 214 215 216 216 215 216 216 216 220 225 228 227 229 229 227 226 225 223 222 222 213
216 205 197 200 197 200 201 196 195 193 193 204 213 220 225 227 228 223 216 207 203 211 214 217 220 221 221 222 224 224 224 231 232 229 231 229 226 225 220 218 215 215 210
226 220 214 206 201 204 202 206 201 201 204 204 210 210 219 227 226 224 217 206 201 206 213 220 224 224 224 226 227 228 228 233 235 233 229 224 222 221 217 218 213 208 207
241 237 230 217 208 207 203 206 207 205 205 204 203 207 207 205 203 204 206 207 209 209 212 216 223 223 226 227 227 228 227 228 231 225 224 226 224 217 214 210 204 199 200
259 240 227 222 216 210 210 210 210 210 216 212 211 214 213 202 201 202 202 206 209 214 217 217 221 224 224 225 231 230 227 225 228 223 220 217 218 212 211 208 203 200 197
252 238 220 213 213 215 217 216 216 214 215 219 217 221 221 213 210 208 207 208 211 216 219 219 220 222 223 225 222 219 220 221 221 219 215 209 208 205 199 198 196 192 186
240 227 220 214 211 214 217 220 219 221 222 223 218 213 212 212 214 215 212 211 214 216 221 218 222 223 219 223 222 219 215 215 214 212 208 202 194 192 192 190 185 180 187
232 225 220 219 214 214 215 219 220 224 224 222 218 216 214 214 214 216 216 215 218 217 220 218 222 218 215 214 216 219 221 219 212 208 203 194 187 187 183 181 183 184 183
223 221 222 225 222 216 217 218 220 220 221 219 217 220 219 218 217 218 219 218 215 216 217 216 217 213 214 212 213 212 211 210 200 194 189 189 183 179 180 181 186 187 186
228 225 224 224 228 226 214 214 217 219 220 219 218 219 220 216 218 216 215 214 212 212 214 210 209 208 207 207 204 199 195 190 183 181 181 182 186 188 188 185 186 188 189